Weather History for Slayton, MN

Change the Weather History Date:

Thursday, July 18, 2013

  Actual Average (KOTG) Record (KOTG)
Temperature  
Mean Temperature 80 °F -  
Max Temperature 90 °F 78 °F 97 °F (1974)
Min Temperature 71 °F 60 °F 50 °F (1984)
Cooling Degree Days 16    
Growing Degree Days 30 (Base 50)    
Moisture  
Dew Point 66 °F    
Average Humidity 61    
Maximum Humidity 85    
Minimum Humidity 40    
Precipitation  
Precipitation 0.00 in - - ()
Sea Level Pressure  
Sea Level Pressure 30.02 in    
Wind  
Wind Speed 13 mph (SSW)    
Max Wind Speed 23 mph    
Max Gust Speed 31 mph    
Visibility 10 miles    
Events      
Averages and records for this station are not official NWS values.
T = Trace of Precipitation, MM = Missing Value Source: NWS Daily Summary

Daily Weather History Graph

Daily Weather History Graph

Search for Another Location

Airport:

Trip Planner

Search our weather history database for the weather conditions in past years. The results will help you decide how hot, cold, wet, or windy it might be!

Date:

Astronomy

Jul. 18, 2013 Rise Set
Actual Time 5:57 AM CDT 9:00 PM CDT
Civil Twilight 5:22 AM CDT 9:35 PM CDT
Nautical Twilight 4:38 AM CDT 10:19 PM CDT
Astronomical Twilight 3:45 AM CDT 11:12 PM CDT
Moon 4:57 PM CDT (7/18) 1:50 AM CDT (7/18)
Length of Visible Light 16h 12m
Length of Day
15h 03m
Waxing Gibbous, 77% of the Moon is Illuminated
Jul 18
Waxing Gibbous
Jul 22
Full
Jul 29
Last Quarter
Aug 6
New
Aug 14
First Quarter

Hourly Weather History & Observations

Time (CDT) Temp. Heat Index Dew Point Humidity Pressure Visibility Wind Dir Wind Speed Gust Speed Precip Events Conditions
12:13 AM 75.0 °F - 66.6 °F 75% 30.18 in 10.0 mi SSW 8.1 mph - N/A   Clear
12:33 AM 74.8 °F - 66.6 °F 75% 30.17 in 10.0 mi South 6.9 mph - N/A   Clear
12:53 AM 74.3 °F - 66.7 °F 77% 30.17 in 10.0 mi South 8.1 mph - N/A   Clear
1:13 AM 74.1 °F - 66.6 °F 77% 30.17 in 10.0 mi South 8.1 mph - N/A   Clear
1:34 AM 73.8 °F - 66.7 °F 79% 30.17 in 10.0 mi South 6.9 mph - N/A   Clear
1:52 AM 72.5 °F - 66.9 °F 83% 30.17 in 10.0 mi South 6.9 mph - N/A   Clear
2:13 AM 72.3 °F - 66.9 °F 83% 30.16 in 10.0 mi South 6.9 mph - N/A   Clear
2:33 AM 71.6 °F - 66.9 °F 85% 30.16 in 10.0 mi South 6.9 mph - N/A   Clear
2:53 AM 72.5 °F - 67.1 °F 83% 30.15 in 10.0 mi South 8.1 mph - N/A   Clear
3:13 AM 73.6 °F - 67.3 °F 81% 30.15 in 10.0 mi South 10.4 mph - N/A   Clear
3:34 AM 73.9 °F - 67.8 °F 81% 30.14 in 10.0 mi South 9.2 mph - N/A   Clear
3:53 AM 74.1 °F - 68.0 °F 81% 30.13 in 10.0 mi SSW 11.5 mph - N/A   Clear
4:14 AM 74.3 °F - 68.0 °F 81% 30.12 in 10.0 mi South 11.5 mph - N/A   Clear
4:33 AM 74.3 °F - 67.6 °F 80% 30.12 in 10.0 mi South 12.7 mph - N/A   Clear
4:53 AM 74.3 °F - 67.3 °F 79% 30.11 in 10.0 mi South 11.5 mph - N/A   Clear
5:13 AM 74.5 °F - 67.1 °F 78% 30.11 in 10.0 mi South 11.5 mph - N/A   Scattered Clouds
5:33 AM 74.5 °F - 66.9 °F 77% 30.11 in 10.0 mi SSW 13.8 mph - N/A   Scattered Clouds
5:53 AM 74.3 °F - 66.7 °F 77% 30.11 in 10.0 mi SSW 12.7 mph - N/A   Scattered Clouds
6:13 AM 73.6 °F - 66.7 °F 79% 30.10 in 10.0 mi SSW 13.8 mph - N/A   Clear
6:33 AM 73.4 °F - 66.7 °F 80% 30.10 in 10.0 mi SSW 13.8 mph - N/A   Clear
6:54 AM 73.6 °F - 67.1 °F 80% 30.10 in 10.0 mi SSW 13.8 mph - N/A   Clear
7:13 AM 74.3 °F - 67.1 °F 78% 30.09 in 10.0 mi SSW 12.7 mph - N/A   Clear
7:33 AM 75.0 °F - 67.1 °F 76% 30.10 in 10.0 mi SSW 11.5 mph - N/A   Clear
7:53 AM 75.7 °F - 67.1 °F 74% 30.09 in 10.0 mi SSW 12.7 mph 18.4 mph N/A   Clear
8:13 AM 77.2 °F - 66.9 °F 71% 30.09 in 10.0 mi SSW 13.8 mph - N/A   Clear
8:34 AM 78.1 °F - 66.7 °F 68% 30.08 in 10.0 mi SW 16.1 mph 19.6 mph N/A   Clear
8:53 AM 79.0 °F - 66.7 °F 66% 30.08 in 10.0 mi SSW 15.0 mph 20.7 mph N/A   Clear
9:13 AM 79.7 °F - 66.6 °F 64% 30.07 in 10.0 mi SSW 18.4 mph 23.0 mph N/A   Clear
9:33 AM 80.6 °F 82.7 °F 66.2 °F 61% 30.07 in 10.0 mi SSW 13.8 mph - N/A   Clear
9:53 AM 81.9 °F 83.7 °F 65.3 °F 57% 30.06 in 10.0 mi SSW 13.8 mph - N/A   Clear
10:13 AM 82.8 °F 84.5 °F 64.9 °F 55% 30.06 in 10.0 mi SW 16.1 mph 20.7 mph N/A   Clear
10:33 AM 83.3 °F 85.1 °F 65.3 °F 54% 30.05 in 10.0 mi SW 17.3 mph - N/A   Clear
10:53 AM 84.2 °F 85.6 °F 64.0 °F 51% 30.05 in 10.0 mi SW 15.0 mph 23.0 mph N/A   Clear
11:13 AM 84.9 °F 86.3 °F 64.6 °F 50% 30.05 in 10.0 mi SSW 19.6 mph - N/A   Clear
11:33 AM 85.3 °F 86.4 °F 63.7 °F 48% 30.04 in 10.0 mi SW 15.0 mph 23.0 mph N/A   Clear
11:53 AM 86.4 °F 87.3 °F 63.1 °F 46% 30.03 in 10.0 mi SSW 13.8 mph 24.2 mph N/A   Clear
12:13 PM 86.4 °F 87.3 °F 63.5 °F 46% 30.03 in 10.0 mi SSW 20.7 mph - N/A   Clear
12:33 PM 87.6 °F 88.8 °F 64.0 °F 45% 30.02 in 10.0 mi SSW 20.7 mph 25.3 mph N/A   Clear
12:52 PM 87.4 °F 88.5 °F 63.5 °F 45% 30.01 in 10.0 mi SW 20.7 mph 26.5 mph N/A   Clear
1:13 PM 87.8 °F 89.1 °F 63.9 °F 45% 30.00 in 10.0 mi SSW 20.7 mph 29.9 mph N/A   Clear
1:33 PM 87.6 °F 88.8 °F 63.9 °F 45% 30.00 in 10.0 mi SSW 16.1 mph 27.6 mph N/A   Clear
1:53 PM 88.0 °F 89.3 °F 64.4 °F 45% 30.00 in 10.0 mi SSW 21.9 mph 27.6 mph N/A   Clear
2:13 PM 87.8 °F 88.8 °F 63.7 °F 44% 29.99 in 10.0 mi SSW 19.6 mph 26.5 mph N/A   Clear
2:33 PM 89.2 °F 90.6 °F 64.0 °F 43% 29.98 in 10.0 mi SW 19.6 mph 28.8 mph N/A   Clear
2:53 PM 88.7 °F 90.1 °F 64.2 °F 44% 29.98 in 10.0 mi SSW 20.7 mph 26.5 mph N/A   Clear
3:13 PM 89.1 °F 90.3 °F 64.0 °F 43% 29.97 in 10.0 mi SSW 16.1 mph 27.6 mph N/A   Clear
3:33 PM 89.4 °F 90.8 °F 64.0 °F 43% 29.96 in 10.0 mi SSW 18.4 mph 27.6 mph N/A   Clear
3:53 PM 89.4 °F 90.2 °F 62.8 °F 41% 29.95 in 10.0 mi SSW 19.6 mph 28.8 mph N/A   Clear
4:14 PM 89.8 °F 90.4 °F 62.6 °F 40% 29.95 in 10.0 mi SSW 18.4 mph 28.8 mph N/A   Clear
4:33 PM 89.2 °F 90.6 °F 63.9 °F 43% 29.94 in 10.0 mi SSW 20.7 mph 25.3 mph N/A   Clear
4:53 PM 89.6 °F 90.4 °F 63.1 °F 41% 29.93 in 10.0 mi SW 21.9 mph 31.1 mph N/A   Scattered Clouds
5:13 PM 89.6 °F 90.8 °F 63.7 °F 42% 29.93 in 10.0 mi SSW 18.4 mph 25.3 mph N/A   Clear
5:33 PM 90.0 °F 91.3 °F 63.9 °F 42% 29.92 in 10.0 mi SW 23.0 mph 27.6 mph N/A   Clear
5:53 PM 89.2 °F 90.6 °F 64.0 °F 43% 29.91 in 10.0 mi SW 19.6 mph 24.2 mph N/A   Clear
6:13 PM 88.7 °F 90.4 °F 64.6 °F 45% 29.90 in 10.0 mi SSW 19.6 mph 27.6 mph N/A   Clear
6:34 PM 88.3 °F 89.9 °F 64.8 °F 45% 29.89 in 10.0 mi SSW 19.6 mph 27.6 mph N/A   Clear
6:53 PM 88.2 °F 89.9 °F 65.1 °F 46% 29.89 in 10.0 mi SW 20.7 mph 29.9 mph N/A   Clear
7:14 PM 87.8 °F 90.0 °F 66.0 °F 48% 29.89 in 10.0 mi SSW 17.3 mph 21.9 mph N/A   Clear
7:32 PM 86.9 °F 88.9 °F 65.7 °F 49% 29.88 in 10.0 mi SSW 18.4 mph 23.0 mph N/A   Clear
7:53 PM 86.2 °F 88.2 °F 65.5 °F 50% 29.88 in 10.0 mi SSW 17.3 mph 24.2 mph N/A   Clear
8:13 PM 85.3 °F 87.1 °F 65.5 °F 51% 29.88 in 10.0 mi SSW 15.0 mph - N/A   Clear
8:33 PM 84.4 °F 86.3 °F 65.5 °F 53% 29.88 in 10.0 mi SSW 15.0 mph 21.9 mph N/A   Clear
8:53 PM 83.3 °F 85.3 °F 65.7 °F 55% 29.88 in 10.0 mi SSW 12.7 mph - N/A   Clear
9:13 PM 82.6 °F 84.5 °F 65.7 °F 56% 29.87 in 10.0 mi SSW 12.7 mph 19.6 mph N/A   Clear
9:34 PM 82.0 °F 84.1 °F 65.8 °F 58% 29.88 in 10.0 mi SSW 12.7 mph - N/A   Clear
9:53 PM 81.5 °F 83.6 °F 65.8 °F 59% 29.88 in 10.0 mi SSW 13.8 mph 19.6 mph N/A   Clear
10:13 PM 81.1 °F 83.2 °F 66.2 °F 60% 29.88 in 10.0 mi SSW 12.7 mph - N/A   Clear
10:34 PM 80.1 °F 82.1 °F 66.2 °F 62% 29.88 in 10.0 mi SSW 15.0 mph - N/A   Clear
10:53 PM 80.4 °F 82.6 °F 66.4 °F 62% 29.88 in 10.0 mi SSW 17.3 mph - N/A   Clear
11:13 PM 80.1 °F 82.2 °F 66.6 °F 63% 29.88 in 10.0 mi SSW 16.1 mph 21.9 mph N/A   Clear
11:34 PM 79.9 °F - 67.1 °F 65% 29.87 in 10.0 mi SSW 17.3 mph 23.0 mph N/A   Clear
11:53 PM 79.7 °F - 67.1 °F 65% 29.87 in 10.0 mi SSW 16.1 mph - N/A   Clear